Regional Weather Roundup
Issued by NWS

Home | Current Version | Previous Version | Graphics & Text | Print | Product List | Glossary On
Versions: 1 2 3 4 5 6 7 8 9 10 11 12 13 14 15 16 17 18 19 20 21 22 23 24 25 26 27 28 29 30 31 32 33 34 35 36 37 38 39 40 41 42 43 44 45 46 47 48 49 50
000
ASUS43 KMKX 300111
RWRWI

WISCONSIN REGIONAL WEATHER ROUNDUP
NATIONAL WEATHER SERVICE MILWAUKEE/SULLIVAN WI
800 PM CDT FRI JUL 29 2016

NOTE: "FAIR" INDICATES FEW OR NO CLOUDS BELOW 12,000 FEET WITH NO
SIGNIFICANT WEATHER AND/OR OBSTRUCTIONS TO VISIBILITY.

WIZ001-002-006>008-014>016-023>028-300200-
NORTHWEST WISCONSIN

CITY           SKY/WX    TMP DP  RH WIND       PRES   REMARKS
SUPERIOR ARPT  CLEAR     65  57  76 NE5       30.05F
ASHLAND        CLEAR     65  56  72 NE7       30.07S
HAYWARD        CLEAR     69  55  60 NE10      30.06S
SIREN          CLEAR     73  54  49 NE3       30.04S
CUMBERLAND     CLEAR     70  54  56 N3        30.03F
RICE LAKE      CLEAR     71  58  63 CALM      30.04S
CHETEK         CLEAR     73  57  56 CALM      30.03S
LADYSMITH      CLEAR     73  60  64 N3        30.05S
EAU CLAIRE     MOCLDY    75  61  61 SE7       30.01S
MENOMONIE      CLEAR     77  53  43 N6        30.02S
NEW RICHMOND   CLEAR     72  55  54 CALM      30.03S
OSCEOLA        CLEAR     71  57  60 N3        30.05S
$$

WIZ003>005-009-010-017-018-300200-
NORTH CENTRAL WISCONSIN

CITY           SKY/WX    TMP DP  RH WIND       PRES   REMARKS
MANITOWISH WTR CLEAR     70  60  70 N3        30.06R
ARBOR VITAE    CLEAR     72  60  64 CALM      30.06R
WOODRUFF       CLEAR     72  60  64 CALM      30.06R
RHINELANDER    PTCLDY    69  59  70 SE3       30.07R
EAGLE RIVER    CLEAR     69  55  61 CALM      30.06R
LAND O LAKES   PTCLDY    72  56  56 CALM      30.07R
PHILLIPS       MOCLDY    72  60  64 CALM      30.04S
TOMAHAWK       CLEAR     69  59  71 CALM      30.06R
MEDFORD        CLEAR     69  61  77 E3        30.05S
MERRILL        CLOUDY    72  61  69 SE5       30.06S
$$

WIZ029-030-035-036-043>047-300200-
CENTRAL WISCONSIN

CITY           SKY/WX    TMP DP  RH WIND       PRES   REMARKS
WAUSAU         MOCLDY    69  61  75 E6        30.03S
MOSINEE        CLEAR     68  61  77 E5        30.05S
MARSHFIELD     CLOUDY    71  62  73 SE6       30.03S
STEVENS POINT  CLOUDY    68  62  82 E5        30.04S
WAUPACA        CLOUDY    73  63  71 NE3       30.03S
WAUTOMA        CLOUDY    70  65  84 NE5       30.02S
WISC RAPIDS    CLOUDY    71  62  73 E5        30.03F
CAMP DOUGLAS   CLOUDY    69  66  90 N3        30.02R
$$

WIZ011>013-019>022-031-037>040-048>050-300200-
NORTHEAST WISCONSIN

CITY           SKY/WX    TMP DP  RH WIND       PRES   REMARKS
ANTIGO         PTCLDY    65  58  79 CALM      30.07S
SHAWANO        CLOUDY    71  57  61 E5        30.04S
OCONTO         CLOUDY    71  59  66 NE3       30.03S
STURGEON BAY   CLEAR     69  56  62 NE5       30.04S
GREEN BAY      CLOUDY    70  57  63 NE6       30.03R
MANITOWOC      CLOUDY    70  57  63 NE6       30.02S
APPLETON       MOCLDY    72  54  53 E9        30.01S
CLINTONVILLE   CLOUDY    70  55  60 NE3       30.03S
OSHKOSH        CLOUDY    72  60  66 E10       30.02R
$$

WIZ032>034-041-042-053>061-300200-
SOUTHWEST WISCONSIN

CITY           SKY/WX    TMP DP  RH WIND       PRES   REMARKS
LA CROSSE      CLOUDY    72  67  84 E5        30.00S
SPARTA         CLOUDY    70  65  83 E3        30.02S
VIROQUA        CLOUDY    68  65  88 NE5       30.03R
BOSCOBEL       CLOUDY    70  67  90 CALM      30.00R
PRAIRIE DU CHI CLOUDY    70  64  82 N3        29.99S
PLATTEVILLE    CLOUDY    70  67  90 NE6       30.00R
$$

WIZ056-057-062-063-064-067-068-300200-
SOUTH CENTRAL WISCONSIN

CITY           SKY/WX    TMP DP  RH WIND       PRES   REMARKS
REEDSBURG      CLOUDY    69  67  92 NE5       30.01R
BARABOO/DELLS  CLOUDY    68  65  89 N3        30.02R
LONE ROCK      MOCLDY    70  66  87 N6        30.00S
MINERAL POINT  CLOUDY    70  66  88 NE6       30.01R
MADISON        MOCLDY    71  64  78 NE7       29.99R
MIDDLETON      PTCLDY    71  64  80 CALM      30.01R
WATERTOWN      CLOUDY    70  63  80 NE7       30.00R
MONROE         CLOUDY    70  66  88 NE7       29.99R
JANESVILLE     CLOUDY    73  68  83 CALM      29.98R
$$

WIZ051-052-058>065-066-070>072-300200-
SOUTHEAST WISCONSIN

CITY           SKY/WX    TMP DP  RH WIND       PRES   REMARKS
MILWAUKEE      CLOUDY    70  65  84 NE12      29.99R
WAUKESHA       MOCLDY    70  61  73 NE9       30.01R
MILWAUKEE/TIMM PTCLDY    70  61  73 NE13      30.00S
RACINE         CLOUDY    69  65  86 N9        29.99S
BURLINGTON     CLOUDY    70  63  78 NE8       29.98S
KENOSHA        CLOUDY    70  66  87 NE9       29.97S
FOND DU LAC    CLOUDY    72  60  66 NE12      30.02R
SHEBOYGAN      CLOUDY    69  60  73 NE14      30.01S
WEST BEND      CLOUDY    68  59  73 NE8       30.01S
JUNEAU         MOCLDY    69  61  75 NE9       30.02S
$$

LSZ147-162-300200-
LAKE SUPERIOR

STATION/POSITION TIME  TEMP    WIND        PRES    WAVE
                       AIR SEA DIR/SP/G            HT/PER
                 (UTC) (F)     (DEG/KT/KT) (MB)    (FT/S)
W MID LAKE BUOY  0050   65 62  110/  8/ 10 1017.6F   0
DEVILS ISLAND    0100   66      90/  7/  7 1018.1R
PORT WING        0040   69      80/  3/  4 1017.9S
SAXON HARBOR     0000   69      40/  6/  9 1017.9S
$$

LMZ867-665-643>646-300200-
LAKE MICHIGAN

STATION/POSITION TIME  TEMP    WIND        PRES    WAVE
                       AIR SEA DIR/SP/G            HT/PER
                 (UTC) (F)     (DEG/KT/KT) (MB)    (FT/S)
CHAMBERS ISLAND  0000   73      60/  8/ 10 1016.9S
S GREEN BAY BUOY 0030   71 70   60/  8/ 12 1016.4S
N MID LAKE BUOY  0050   71 70   40/  8/ 10 1016.5S   1/ 3
NORTHPORT PIER   0000   72      80/  8/ 10 1016.9S
SISTER BAY       0021   77      80/  3/  8   N/A
ALGOMA LAKESHORE 0013           20/ 11/ 16   N/A
KEWAUNEE LAKESHO 0000   69      30/  5/  9   N/A
SHEBOYGAN LAKESH 0100   65     350/ 12/ 12 1016.3R
PORT WASHINGTON  0000   71      30/  8/ 12 1016.3R
ATWATER BUOY     0100   64 62  360/  8/ 10 1017.2R
MILWAUKEE LAKESH 0010   68      10/ 12/ 13   N/A
S MID LAKE BUOY  0050   71 74  170/  2/  4 1014.3R   2/ 6
KENOSHA   LAKESH 0100   70      40/ 13/ 15 1014.2F
$$

TC  - TEMPERATURE IN CELSIUS
VSB - VISIBILITY IN STATUTE MILES
WCI - WIND CHILL INDEX
HX  - HEAT INDEX





USA.gov is the U.S. government's official web portal to all federal, state and local government web resources and services.